Regional Weather Roundup
Issued by NWS

Home | Current Version | Previous Version | Graphics & Text | Print | Product List | Glossary On
Versions: 1 2 3 4 5 6 7 8 9 10 11 12 13 14 15 16 17 18 19 20 21 22 23 24 25 26 27 28 29 30 31 32 33 34 35 36 37 38 39 40 41 42 43 44 45 46 47 48 49 50
000
ASUS43 KMPX 261801
RWRMN
WEATHER ROUNDUP FOR MINNESOTA
NATIONAL WEATHER SERVICE TWIN CITIES/CHANHASSEN MN
100 PM CDT FRI MAY 26 2017


NOTE: "FAIR" INDICATES FEW OR NO CLOUDS BELOW 12,000 FEET WITH NO
SIGNIFICANT WEATHER AND/OR OBSTRUCTIONS TO VISIBILITY. N/A MEANS
CURRENT SKY AND/OR WEATHER CONDITIONS ARE NOT AVAILABLE.

MNZ060>063-068>070-261900-
   Twin Cities Metro

CITY           SKY/WX    TMP DP  RH WIND       PRES   REMARKS
TWIN CITIES    MOSUNNY   72  55  55 S10       29.74S
6HR MIN TEMP:  61; 6HR MAX TEMP:  73;

ST PAUL        PTSUNNY   72  58  61 S9        29.74F
CRYSTAL        SUNNY     74  55  51 S10       29.72S
BLAINE         MOSUNNY   73  57  56 S13       29.73S
LAKEVILLE      SUNNY     72  55  56 S7        29.75S
EDEN PRAIRIE   SUNNY     75  58  55 S8        29.73S
6HR MIN TEMP:  62; 6HR MAX TEMP:  75;

SOUTH ST PAUL  MOSUNNY   72  55  55 S8        29.74S
LAKE ELMO      FAIR      72  59  64 S10       29.75F
$$
MNZ001>005-007-008-013>017-022>024-027-028-261900-
   Northwest Minnesota

CITY           SKY/WX    TMP DP  RH WIND       PRES   REMARKS
BEMIDJI        MOSUNNY   71  46  39 W13G24    29.67R
HALLOCK        PTSUNNY   68  46  45 W13G22    29.62R
ROSEAU         MOSUNNY   68  48  49 SW13      29.63R
WARROAD        SUNNY     68  46  45 SW8       29.63R
CROOKSTON      MOSUNNY   68  46  45 W12G20    29.67R
FOSSTON        SUNNY     70  43  37 SW15G22   29.68S
DETROIT LAKES  SUNNY     68  46  45 SW12G17   29.72S
MOORHEAD       MOSUNNY   70  43  37 W18G24    29.71R
PARK RAPIDS    PTSUNNY   70  44  39 W12G24    29.69R
MAHNOMEN       FAIR      68  46  44 W15       29.68S
$$
MNZ006-009>011-018-025>026-261900-
   North Central Minnesota

CITY           SKY/WX    TMP DP  RH WIND       PRES   REMARKS
BAUDETTE       MOSUNNY   72  47  40 W12       29.62R
FLAG ISLAND    CLOUDY    63  48  59 SE7       29.61S
INTL FALLS     CLOUDY    70  53  54 SW8       29.62F
6HR MIN TEMP:  56; 6HR MAX TEMP:  72;

WASKISH        CLOUDY    68  52  56 W12       29.65S
BIG FORK       PTSUNNY   73  57  56 SW13      29.66S
LONGVILLE      SUNNY     72  52  49 S7        29.68S
GRAND RAPIDS   MOSUNNY   72  56  57 S10       29.68F
CRANE LAKE     MOSUNNY   70  54  56 S10G17    29.67F
ORR            MOSUNNY   72  52  49 S13G23    29.64S
COOK           MOSUNNY   70  54  56 SW10      29.68S
WALKER         MOCLDY    69  47  45 W13G20    29.67R
$$
MNZ012-019>021-037-261900-
   Northeast Minnesota

CITY           SKY/WX    TMP DP  RH WIND       PRES   REMARKS
DULUTH         MOSUNNY   62  52  69 SE9       29.72F
6HR MIN TEMP:  48; 6HR MAX TEMP:  63;

ELY            PTSUNNY   68  52  56 S12G17    29.69S
HIBBING        PTSUNNY   70  55  59 S8G20     29.68S
EVELETH        SUNNY     70  47  43 S10G16    29.70F
DULUTH HARBOR  MOSUNNY   48  45  87 NE7       29.75S
TWO HARBORS    CLOUDY    64  55  72 E7        29.72S
SILVER BAY     PTSUNNY   57  52  82 E6        29.74S
GRAND MARAIS     N/A     48  44  86 NE6       29.78F
G MARAIS ARPRT CLOUDY    57  46  67 SE6       29.79F
$$
MNZ029>031-032-039>041-046>048-054>057-064-261900-
   West Central Minnesota

CITY           SKY/WX    TMP DP  RH WIND       PRES   REMARKS
FERGUS FALLS   MOSUNNY   70  48  46 W14G21    29.70S
WHEATON        SUNNY     70  43  37 W10G21    29.75S
MORRIS         MOSUNNY   70  50  49 W15G22    29.74R
ALEXANDRIA     SUNNY     70  48  45 W15G21    29.74S
ELBOW LAKE     PTSUNNY   68  49  49 NW17G25   29.74S
WADENA         SUNNY     70  46  43 W15G23    29.71R
GLENWOOD       SUNNY     70  48  46 W13G20    29.74S
APPLETON       MOSUNNY   70  46  43 W15       29.75R
BENSON         MOSUNNY   72  46  40 W15G23    29.76R
ORTONVILLE     SUNNY     70  46  43 W15       29.76R
MADISON        MOSUNNY   72  52  49 NW15      29.76S
WILLMAR        FAIR      72  52  49 W12G24    29.75S
$$
MNZ033>034-036-042>043-049>051-058-059-261900-
   Central Minnesota

CITY           SKY/WX    TMP DP  RH WIND       PRES   REMARKS
ST CLOUD       MOSUNNY   73  57  57 W13G20    29.71R
6HR MIN TEMP:  57; 6HR MAX TEMP:  75;

SAUK CENTRE    FAIR      69  50  49 W13G21    29.73R
PAYNESVILLE    SUNNY     72  47  41 W10G17    29.74R
AITKIN         MOSUNNY   72  57  60 S8        29.68S
PINE RIVER     MOSUNNY   70  52  52 W9        29.72S
BRAINERD       MOSUNNY   73  54  51 W10       29.69S
STAPLES        SUNNY     72  45  37 W12G18    29.70S
LONG PRAIRIE   FAIR      68  46  45 SW10      29.73R
LITTLE FALLS   MOSUNNY   72  46  40 W9        29.72R
LITCHFIELD     SUNNY     73  55  53 W6        29.74R
BUFFALO        SUNNY     73  57  57 S8        29.73S
MAPLE LAKE     SUNNY     76  61  60 S6        29.73S
HUTCHINSON     SUNNY     76  57  52 W9        29.74S
$$
MNZ037-044-045-052-053-261900-
   East Central Minnesota

CITY           SKY/WX    TMP DP  RH WIND       PRES   REMARKS
PRINCETON      SUNNY     75  57  53 S8        29.71S
MORA           SUNNY     70  55  60 S12       29.72F
CAMBRIDGE      SUNNY     75  57  53 S10       29.70S
RUSH CITY      SUNNY     72  57  60 S8        29.72F
MOOSE LAKE     MOSUNNY   72  55  56 S9G16     29.69S
HINCKLEY       FAIR      72  59  64 S12G17    29.71F
CLOQUET        SUNNY     66  52  59 SE7       29.71S
MCGREGOR       MOSUNNY   72  55  56 SW9       29.70S
$$
MNZ071>073-080-081-089-090-097-098-261900-
   Southwest Minnesota

CITY           SKY/WX    TMP DP  RH WIND       PRES   REMARKS
MONTEVIDEO     SUNNY     72  48  43 NW10      29.76R
CANBY          SUNNY     69  50  51 NW13G21   29.78S
MARSHALL       SUNNY     70  50  49 NW16      29.77R
REDWOOD FALLS  SUNNY     74  49  41 NW9       29.74S
OLIVIA         SUNNY     73  52  46 W9G21     29.74R
PIPESTONE      SUNNY     68  43  40 NW17G23   29.80R
WINDOM         SUNNY     73  52  46 W8G16     29.77S
WORTHINGTON    SUNNY     73  50  44 W14       29.79S
JACKSON        SUNNY     72  50  46 NW7       29.79R
TRACY          SUNNY     73  53  50 W10G23    29.77S
SLAYTON        SUNNY     70  50  49 W18       29.79S
$$
MNZ065>067-074>077-082>085-091>093-261900-
   South Central Minnesota

CITY           SKY/WX    TMP DP  RH WIND       PRES   REMARKS
MANKATO        SUNNY     72  56  57 W7        29.75S
NEW ULM        SUNNY     72  54  53 W7        29.74S
ST JAMES       SUNNY     73  54  49 W6        29.76S
FAIRMONT       SUNNY     73  57  57 CALM      29.76S
GLENCOE        SUNNY     74  62  65 S5        29.73S
FARIBAULT      SUNNY     72  55  56 SW9       29.76S
OWATONNA       SUNNY     72  55  56 S8        29.76F
WASECA         SUNNY     72  55  56 S8        29.77S
ALBERT LEA     SUNNY     72  57  60 SW7       29.77S
$$
MNZ078>079-086>088-094>096-261900-
   Southeast Minnesota

CITY           SKY/WX    TMP DP  RH WIND       PRES   REMARKS
ROCHESTER      CLOUDY    68  56  65 S12       29.78R
6HR MIN TEMP:  56; 6HR MAX TEMP:  70;

RED WING       CLOUDY    70  54  56 SW5       29.75F
STANTON        MOSUNNY   72  56  57 S7        29.74F
DODGE CENTER   MOSUNNY   70  55  60 S9        29.78S
WINONA         CLOUDY    73  57  56 S5        29.78R
AUSTIN         PTSUNNY   70  55  60 S7        29.78R
PRESTON        CLOUDY    67  55  65 S14       29.80S
$$
ABBREVIATIONS USED IN REMARKS
   TC - TEMPERATURES IN CELSIUS
  WCI - WIND CHILL INDEX
   HX - HEAT INDEX
  VSB - VISIBILITY
$$




USA.gov is the U.S. government's official web portal to all federal, state and local government web resources and services.